Regional Weather Roundup
Issued by NWS Upton, NY

Current Version | Previous Version | Graphics & Text | Print | Product List | Glossary Off
Versions: 1 2 3 4 5 6 7 8 9 10 11 12 13 14 15 16 17 18 19 20 21 22 23 24 25 26 27 28 29 30 31 32 33 34 35 36 37 38 39 40 41 42 43 44 45 46 47 48 49 50

545
ASUS41 KOKX 220407
RWROKX

REGIONAL WEATHER ROUNDUP
NATIONAL WEATHER SERVICE NEW YORK NY
1200 AM EDT WED MAR 22 2017

NOTE: "FAIR" INDICATES FEW OR NO CLOUDS BELOW 12,000 FEET WITH NO
SIGNIFICANT WEATHER AND/OR OBSTRUCTIONS TO VISIBILITY.

NYZ071-072-176-178-NJZ106-104-220500-
NEW YORK CITY METRO AREA

CITY           SKY/WX    TMP DP  RH WIND       PRES   REMARKS
Central Park   MOCLDY    51  24  34 NE3       29.89S
Wall St Helipt CLOUDY    52  27  37 NE6       29.87S
LaGuardia APRT CLOUDY    52  27  38 N7        29.86S
Kennedy INTL   CLOUDY    53  26  35 N12       29.87S
Breezy Point     N/A     46 N/A N/A W6          N/A
Newark/Liberty CLOUDY    51  24  34 N9        29.86S
Teterboro      CLOUDY    50  24  36 N5        29.86F
$$

NYZ177-179-078>081-220500-
LONG ISLAND NEW YORK

CITY           SKY/WX    TMP DP  RH WIND       PRES   REMARKS
Jones Beach      N/A     46 N/A N/A NW5         N/A
Matinecock PT  NOT AVBL
Farmingdale    CLOUDY    49  30  48 N3        29.86S
MacArthur/ISP  CLOUDY    43  36  76 CALM      29.85F
Shirley        CLOUDY    42  35  76 CALM      29.86F
Westhampton    CLOUDY    40  32  73 N5        29.87S
East Hampton     N/A     44  30  57 N5        29.85S
Montauk          N/A     43  35  73 CALM      29.86S
$$

NYZ052-065-067-220500-
HUDSON VALLEY

CITY           SKY/WX    TMP DP  RH WIND       PRES   REMARKS
White Plains   CLOUDY    44  20  38 NW5       29.84F
Newburgh       CLEAR     37  19  48 CALM      29.86F
Montgomery     CLEAR     31  23  72 S3        29.84F
Poughkeepsie   CLEAR     32  23  69 CALM      29.84F
Albany         PTCLDY    40  25  55 W10       29.84R WCI  33
$$

NJZ001-105-106-008-010-013-015-019>022-104-220500-
NEW JERSEY

CITY           SKY/WX    TMP DP  RH WIND       PRES   REMARKS
Newark/Liberty CLOUDY    51  24  34 N9        29.86S
Teterboro      CLOUDY    50  24  36 N5        29.86F
Caldwell       CLOUDY    44  27  51 E5        29.87F
Somerville     CLOUDY    41  34  76 NW3       29.86R
Linden           N/A     50  34  54 CALM      29.86S
Sussex         PTCLDY    35  27  72 CALM      29.87S
Andover          N/A     34  30  85 CALM      29.87S
Trenton        CLOUDY    50  36  58 W3        29.86S
Millville      CLOUDY    48  41  76 SW6       29.90F
Atlantic City  PTCLDY    47  37  68 SW7       29.90S
Wrightstown    CLOUDY    48  37  64 SW8       29.84F
Toms River     CLOUDY    40  34  79 SW5       29.88F
Belmar         MOCLDY   N/A N/A N/A S5        29.87F
$$

PAZ047>061-062-071-220500-
EASTERN PENNSYLVANIA

CITY           SKY/WX    TMP DP  RH WIND       PRES   REMARKS
Philadelphia   CLOUDY    50  39  66 W8        29.89S
Allentown      CLOUDY    43  33  68 NW6       29.89R
Scranton       CLEAR     41  17  38 W3        29.86F
$$

CTZ002-004>006-009-010-012-RIZ004-006-007-MAZ004-011-015-220500-
SOUTHERN NEW ENGLAND
 IN CT

CITY           SKY/WX    TMP DP  RH WIND       PRES   REMARKS
Bradley INTL   CLOUDY    41  22  46 W5        29.83F
Hartford       CLOUDY    40  28  62 CALM      29.84F
Danbury        PTCLDY    33  27  78 SW3       29.86F
Wtrbury/Oxford CLOUDY    37  25  60 N3        29.85F
Bridgeport     MOCLDY    48  24  39 N5        29.85F
Meriden        CLOUDY    39  31  72 CALM      29.85F
New Haven      MOCLDY    44  28  53 N5        29.84F
Chester          N/A     43  27  52 N5        29.83F
Groton         MOCLDY    45  26  47 N9        29.84F
Wilimantic     CLOUDY    38  28  67 S3        29.85F

 IN RI

CITY           SKY/WX    TMP DP  RH WIND       PRES   REMARKS
Providence     CLOUDY    44  22  41 NW8       29.83F
Block Island   CLOUDY    44  31  60 N8        29.85F
Westerly       MOCLDY    46  26  45 N8        29.84F
 IN MA

CITY           SKY/WX    TMP DP  RH WIND       PRES   REMARKS
Boston         PTCLDY    43  26  51 W12G22    29.81F
Worcester      CLEAR     37  21  52 W8        29.80F WCI  31
Westfield      CLEAR     31  26  82 SE3       29.82F
Provincetown   PTCLDY    42  32  67 W12       29.81S
Nantucket      CLOUDY    40  35  83 W12       29.82F WCI  33
$$

ANZ330-335-338-340-345-350-353-355-220500-
COASTAL MARINE OBSERVATIONS


STATION/POSITION TIME  SKY/WX   TEMP    WIND        PRES    VSBY  WAVE
                                AIR SEA DIR/SP/G                  HT/PER
                 (UTC)          (F)     (DEG/KT/KT) (MB)    (MI)  (FT/S)
NY HARB ENTRANCE 0250            45 43  230/  6/  6 1011.5          2/11
20 S FIRE ISLAND 0250            44 41  240/  8/  8 1011.2          3/10
GREAT SOUTH BAY  NOT AVBL
23 SSW MONTAUK P 0250            44 42              1011.3          3/10
15 E BARNEGAT LI 0330               43                N/A           3/ 9
HUDSON CANYON    0250            47 46  240/ 10/ 12 1012.1          3/10
KINGS POINT      0342            47 39              1011.1
EXECUTION ROCKS  NOT AVBL
CENTRAL LI SOUND 0330            42     130/  2/  2   N/A           1
EASTERN LI SOUND NOT AVBL
ROBBINS REEF     0348            52     360/  6/  7 1011.4
$$


>>>>>>>>>>>>>>>>>>>>>>>>>>>> KEY <<<<<<<<<<<<<<<<<<<<<<<<<<<
>                                                          <
>     SKY/WX - Sky Condition/Present Weather               <
>     TMP    - Temperature in Fahrenheit                   <
>     DP     - Dew Point in Fahrenheit                     <
>     RH     - Relative Humidity in Percent                <
>     WIND   - Direction (from) and Speed in MPH           <
>     PRES   - Mean Sea Level Pressure (inches of Hg)      <
>     WCI    - Wind Chill Index                            <
>     VSB    - VISIBILITY IN MILES                         <
>     HX     - HEAT INDEX                                  <
>     TC     - TEMPERATURE IN CELSIUS                      <
>     VRB    - VARIABLE WIND DIRECTION                     <
>                                                          <
>>>>>>>>>>>>>>>>>>>>>>>>>>>> KEY <<<<<<<<<<<<<<<<<<<<<<<<<<<




USA.gov is the U.S. government's official web portal to all federal, state and local government web resources and services.